Madrid, Spain

9:46 PM CEST on August 17, 2017 (GMT +0200)
Madrid-Barajas Airport

Weather History for LEMD - May, 2013

Change the Weather History Date:

Thursday, May 2, 2013

  Actual Average Record
Temperature  
Mean Temperature 49 °F -  
Max Temperature 63 °F 72 °F 81 °F (2015)
Min Temperature 35 °F 49 °F 35 °F (2001)
Degree Days  
Heating Degree Days 16    
Moisture  
Dew Point 40 °F    
Average Humidity 70    
Maximum Humidity 100    
Minimum Humidity 32    
Precipitation  
Precipitation 0.00 in 0.05 in - ()
Sea Level Pressure  
Sea Level Pressure 30.07 in    
Wind  
Wind Speed 4 mph ()    
Max Wind Speed 9 mph    
Max Gust Speed -    
Visibility 7.5 miles    
Events      
Averages and records for this station are not official NWS values.
T = Trace of Precipitation, MM = Missing Value Source: Averaged Metar Reports

Daily Weather History Graph

Daily Weather History Graph

Search for Another Location

Airport or City:

Trip Planner

Search our weather history database for the weather conditions in past years. The results will help you decide how hot, cold, wet, or windy it might be!

Date:

Astronomy

May. 02, 2013 Rise Set
Actual Time 7:12 AM CEST 9:10 PM CEST
Civil Twilight 6:42 AM CEST 9:40 PM CEST
Nautical Twilight 6:06 AM CEST 10:16 PM CEST
Astronomical Twilight 5:27 AM CEST 10:56 PM CEST
Moon 2:51 AM CEST (5/2) 1:43 PM CEST (5/2)
Length of Visible Light 14h 58m
Length of Day
13h 58m
Waning Gibbous, 51% of the Moon is Illuminated
May 2
Waning Gibbous
May 2
Last Quarter
May 10
New
May 18
First Quarter
May 25
Full

Hourly Weather History & Observations

Time (CEST) Temp. Windchill Dew Point Humidity Pressure Visibility Wind Dir Wind Speed Gust Speed Precip Events Conditions
12:00 AM 46.4 °F 45.2 °F 44.6 °F 93% 30.06 in - NNE 3.5 mph - N/A   Clear
12:30 AM 44.6 °F 42.2 °F 42.8 °F 93% 30.06 in - North 4.6 mph - N/A   Clear
1:00 AM 44.6 °F 41.4 °F 42.8 °F 93% 30.06 in - NNW 5.8 mph - N/A   Clear
1:30 AM 44.6 °F 42.2 °F 42.8 °F 93% 30.06 in - NW 4.6 mph - N/A   Clear
2:00 AM 43 °F - 40 °F 85% 30.12 in 19 mi NNW 6.9 mph - -  
2:00 AM 44.6 °F 40.7 °F 42.8 °F 93% 30.06 in - NNW 6.9 mph - N/A   Clear
2:30 AM 42.8 °F 39.3 °F 41.0 °F 93% 30.06 in - NNW 5.8 mph - N/A   Clear
3:00 AM 41.0 °F - 41.0 °F 100% 30.06 in - Calm Calm - N/A   Clear
3:30 AM 41.0 °F 39.0 °F 41.0 °F 100% 30.06 in - NW 3.5 mph - N/A   Clear
4:00 AM 41.0 °F 39.0 °F 39.2 °F 93% 30.06 in - North 3.5 mph - N/A   Clear
4:30 AM 41.0 °F - 41.0 °F 100% 30.04 in - NNW 2.3 mph - N/A   Clear
5:00 AM 39.2 °F 35.0 °F 39.2 °F 100% 30.04 in - NNW 5.8 mph - N/A   Clear
5:30 AM 39.2 °F - 37.4 °F 93% 30.04 in - Variable 2.3 mph - N/A   Clear
6:00 AM 39.2 °F - 39.2 °F 100% 30.04 in - North 2.3 mph - N/A   Clear
6:30 AM 37.4 °F 34.9 °F 37.4 °F 100% 30.04 in - NNW 3.5 mph - N/A   Clear
7:00 AM 37.4 °F - 37.4 °F 100% 30.04 in - North 2.3 mph - N/A   Clear
7:30 AM 37.4 °F - 37.4 °F 100% 30.06 in - North 2.3 mph - N/A   Clear
8:00 AM 38 °F - 36 °F 87% 30.14 in 16 mi NW 3.5 mph - -   Scattered Clouds
8:00 AM 39.2 °F - 37.4 °F 93% 30.06 in - NNW 2.3 mph - N/A   Clear
8:30 AM 41.0 °F - 41.0 °F 100% 30.06 in - Variable 1.2 mph - N/A   Clear
9:00 AM 44.6 °F - 41.0 °F 87% 30.06 in - NNE 2.3 mph - N/A   Clear
9:30 AM 46.4 °F - 42.8 °F 87% 30.09 in - Variable 2.3 mph - N/A   Clear
10:00 AM 50.0 °F - 42.8 °F 76% 30.09 in - ESE 2.3 mph - N/A   Clear
10:30 AM 53.6 °F - 44.6 °F 72% 30.09 in 6.2 mi NNE 2.3 mph - N/A   Partly Cloudy
11:00 AM 55.4 °F - 46.4 °F 72% 30.09 in 6.2 mi NE 5.8 mph - N/A   Partly Cloudy
11:30 AM 57.2 °F - 42.8 °F 59% 30.09 in 6.2 mi NE 6.9 mph - N/A   Partly Cloudy
12:00 PM 59.0 °F - 44.6 °F 59% 30.09 in 6.2 mi North 3.5 mph - N/A   Scattered Clouds
12:30 PM 59.0 °F - 42.8 °F 55% 30.09 in 6.2 mi NNE 5.8 mph - N/A   Scattered Clouds
1:00 PM 60.8 °F - 42.8 °F 52% 30.09 in 6.2 mi NNE 8.1 mph - N/A   Scattered Clouds
1:30 PM 59.0 °F - 39.2 °F 48% 30.09 in 6.2 mi NNW 4.6 mph - N/A   Scattered Clouds
2:00 PM 59.0 °F - 41.0 °F 51% 30.09 in 6.2 mi NNW 3.5 mph - N/A   Scattered Clouds
2:30 PM 62.6 °F - 41.0 °F 45% 30.06 in 6.2 mi NW 2.3 mph - N/A   Scattered Clouds
3:00 PM 62.6 °F - 39.2 °F 42% 30.06 in 6.2 mi ENE 3.5 mph - N/A   Scattered Clouds
3:30 PM 62.6 °F - 33.8 °F 34% 30.06 in 6.2 mi North 4.6 mph - N/A   Scattered Clouds
4:00 PM 62.6 °F - 39.2 °F 42% 30.06 in 6.2 mi North 8.1 mph - N/A   Scattered Clouds
4:30 PM 62.6 °F - 41.0 °F 45% 30.06 in 6.2 mi North 8.1 mph - N/A   Scattered Clouds
5:00 PM 62.6 °F - 37.4 °F 39% 30.06 in 6.2 mi North 9.2 mph - N/A   Scattered Clouds
5:30 PM 62.6 °F - 39.2 °F 42% 30.06 in 6.2 mi North 8.1 mph - N/A   Mostly Cloudy
6:00 PM 62.6 °F - 41.0 °F 45% 30.06 in 6.2 mi NNW 5.8 mph - N/A   Mostly Cloudy
6:30 PM 62.6 °F - 39.2 °F 42% 30.06 in 6.2 mi North 5.8 mph - N/A   Mostly Cloudy
7:00 PM 60.8 °F - 39.2 °F 45% 30.06 in 6.2 mi North 9.2 mph - N/A   Mostly Cloudy
7:30 PM 60.8 °F - 42.8 °F 52% 30.06 in 6.2 mi North 4.6 mph - N/A   Mostly Cloudy
8:00 PM 60 °F - 38 °F 32% 30.05 in 19 mi North 6.9 mph - -   Scattered Clouds
8:00 PM 60.8 °F - 39.2 °F 45% 30.06 in 6.2 mi North 5.8 mph - N/A   Mostly Cloudy
8:30 PM 59.0 °F - 39.2 °F 48% 30.06 in 6.2 mi North 5.8 mph - N/A   Mostly Cloudy
9:00 PM 59.0 °F - 41.0 °F 51% 30.06 in 6.2 mi North 5.8 mph - N/A   Mostly Cloudy
9:30 PM 57.2 °F - 41.0 °F 55% 30.09 in 6.2 mi North 4.6 mph - N/A   Scattered Clouds
10:00 PM 53.6 °F - 41.0 °F 62% 30.09 in 6.2 mi North 4.6 mph - N/A   Partly Cloudy
10:30 PM 53.6 °F - 39.2 °F 58% 30.09 in - North 5.8 mph - N/A   Clear
11:00 PM 51.8 °F - 41.0 °F 67% 30.09 in - North 6.9 mph - N/A   Clear
11:30 PM 50.0 °F - 39.2 °F 66% 30.09 in - NNW 5.8 mph - N/A   Clear